This demonstration page uses our WeatherBlox Daily Observations layout. Learn more.

Left ArrowRight Arrow

41.86663, -103.66717

Hourly Observations for March 16, 2021

Temp ( °F °C ) Dew Point ( °F °C ) Humidity (%) Winds ( mph kmh ) Pressure ( in mb ) Visibility ( mi km ) Precip ( " mm )
12:46 am 00:46 Cloudy 26 -3.3 25 -3.9 96 96 WNW 5 7 29.97 1015 10 16.0934 0 0
12:53 am 00:53 Cloudy 26 -3.3 25 -3.9 96 96 NW 6 9 29.9 1012 10 16.0934 0 0
1:00 am 01:00 Cloudy 26 -3.3 25 -3.9 96 96 NW 7 11 29.97 1015 10 16.0934 0 0
1:53 am 01:53 Mostly Cloudy 23 -5 21 -6.1 92 92 NW 7 11 29.91 1013 10 16.0934 0 0
2:53 am 02:53 Cloudy 23 -5 21 -6.1 92 92 WNW 6 9 29.91 1013 10 16.0934 0 0
3:53 am 03:53 Cloudy 24 -4.4 22 -5.6 91 91 Calm 29.9 1012 10 16.0934 0 0
4:53 am 04:53 Cloudy 24 -4.4 22 -5.6 91 91 N 6 9 29.91 1013 8 12.87472 0 0
5:53 am 05:53 Cloudy with Light Snow 24 -4.4 21 -6.1 88 88 NNW 3 6 29.91 1013 7 11.26538 0.001 0.001
6:53 am 06:53 Cloudy 24 -4.4 23 -5 96 96 SW 5 7 29.91 1013 7 11.26538 0.001 0.001
7:12 am 07:12 Cloudy 26 -3.3 25 -3.9 96 96 W 3 6 30 1016 7 11.26538 0 0
7:53 am 07:53 Cloudy 27 -2.8 25 -3.9 92 92 Calm 29.92 1013 7 11.26538 0 0
8:53 am 08:53 Cloudy 28 -2.2 25 -3.9 88 88 Calm 29.93 1014 7 11.26538 0 0
9:53 am 09:53 Cloudy with Mist and Fog 29 -1.7 27 -2.8 92 92 NW 5 7 29.95 1014 5 8.0467 0 0
10:53 am 10:53 Cloudy 31 -0.6 27 -2.8 85 85 undefined N/A 29.96 1015 10 16.0934 0 0
11:51 am 11:51 Cloudy 34 1 28 -2 81 81 NW 5 7 29.98 1015 10 16.0934 0 0
11:53 am 11:53 Cloudy 33 0.6 27 -2.8 78 78 NW 5 7 29.96 1015 10 16.0934 0 0
12:06 pm 12:06 Cloudy 34 1 28 -2 81 81 WNW 5 7 29.98 1015 10 16.0934 0 0
12:53 pm 12:53 Cloudy 33 0.6 28 -2.2 82 82 WNW 7 11 29.96 1015 10 16.0934 0 0
1:53 pm 13:53 Partly Cloudy 35 1.7 29 -1.7 78 78 NW 9 15 29.95 1014 10 16.0934 0 0
2:53 pm 14:53 Cloudy 36 2.2 27 -2.8 70 70 NNW 12 19 29.94 1014 10 16.0934 0 0
3:53 pm 15:53 Cloudy 34 1.1 27 -2.8 76 76 NNW 12 19 29.97 1015 10 16.0934 0 0
4:53 pm 16:53 Cloudy 34 1.1 27 -2.8 76 76 NNW 8 13 29.98 1015 10 16.0934 0 0
5:53 pm 17:53 Cloudy 33 0.6 27 -2.8 78 78 NW 6 9 29.99 1016 10 16.0934 0 0
6:53 pm 18:53 Cloudy 32 0 28 -2.2 85 85 NW 5 7 30.01 1016 10 16.0934 0 0
7:53 pm 19:53 Cloudy 32 0 29 -1.7 88 88 WNW 5 7 30.03 1017 10 16.0934 0 0
8:53 pm 20:53 Cloudy 32 0 30 -1.1 92 92 W 3 6 30.05 1018 10 16.0934 0 0
9:21 pm 21:21 Cloudy 32 0 30 -1.1 92 92 Calm 30.09 1019 10 16.0934 0 0
9:53 pm 21:53 Cloudy 33 0.6 30 -1.1 89 89 Calm 30.06 1018 10 16.0934 0 0
10:53 pm 22:53 Cloudy 33 0.6 30 -1.1 89 89 WNW 5 7 30.06 1018 10 16.0934 0 0
11:20 pm 23:20 Cloudy 34 1 30 -1 87 87 WNW 6 9 30.1 1019 10 16.0934 0 0
11:34 pm 23:34 Cloudy 32 0 30 -1.1 92 92 WNW 7 11 30.1 1019 10 16.0934 0 0
11:53 pm 23:53 Cloudy 31 -0.6 30 -1.1 96 96 NW 6 9 30.06 1018 10 16.0934 0 0

Powered by AerisWeather